Home   Weather   Kitchener   Past weeks

Flag for Canada Past Weather in Kitchener, Ontario, Canada — Yesterday and Last 2 Weeks

Now
50 °F

Passing clouds.


Feels Like: 49 °F
Forecast: 45 / 68 °F
Wind: 3 mph from East

Location: Waterloo Well

Current Time: Sep 27, 2016 at 9:57:24 PM

Latest Report: Sep 27, 2016 at 9:00 PM


Visibility: 9 mi

Pressure: 29.83 "Hg

Humidity: 76%

Dew Point: 43 °F

Location of KitchenerLocation

Past Weather in Kitchener — Graph

°F

Kitchener Temperature Yesterday

Maximum temperature yesterday: 63 °F (at 1:59 PM)
Minimum temperature yesterday: 48 °F (at 4:00 AM)
Average temperature yesterday: 56 °F

High & Low Weather Summary for the Past Weeks

 TemperatureHumidityPressure
High82 °F (Sep 22, 2:00 PM)100% (Sep 13, 2:00 AM)30.37 "Hg (Sep 13, 2:00 AM)
Low36 °F (Sep 25, 7:00 AM)31% (Sep 20, 5:00 PM)29.73 "Hg (Sep 27, 3:00 PM)
Average60 °F77%30.09 "Hg
* Reported Sep 12 8:00 PM — Sep 27 8:00 PM, Kitchener, Weather by CustomWeather, © 2016

Note: Actual official high and low records may vary slightly from our data, if they occured in-between our weather recording intervals... More about our weather records

Advertising

Kitchener Weather History for the Previous 24 Hours

Scroll right to see more
 ConditionsComfort  
Time TempWeatherWind HumidityBarometerVisibility
8:00 PM
Tue, Sep 27
55 °FClear.3 mph55%29.81 "Hg9 mi
7:00 PM61 °FPartly sunny.5 mph45%29.79 "Hg9 mi
6:00 PM63 °FScattered clouds.9 mph45%29.77 "Hg9 mi
5:00 PM66 °FScattered clouds.17 mph37%29.75 "Hg9 mi
4:00 PM66 °FBroken clouds.18 mph37%29.73 "Hg9 mi
3:00 PM64 °FPartly sunny.16 mph34%29.73 "Hg9 mi
2:00 PM66 °FPartly sunny.16 mph37%29.74 "Hg9 mi
1:00 PM66 °FSunny.22 mph35%29.74 "Hg9 mi
12:00 PM64 °FPassing clouds.17 mph43%29.76 "Hg9 mi
11:00 AM63 °FScattered clouds.16 mph52%29.78 "Hg9 mi
10:00 AM59 °FSunny.12 mph59%29.78 "Hg9 mi
9:00 AM54 °FSunny.8 mph72%29.80 "Hg9 mi
8:00 AM50 °FSunny.9 mph76%29.81 "Hg9 mi
7:00 AM48 °FPassing clouds.8 mph76%29.80 "Hg9 mi
6:00 AM46 °FClear.7 mph87%29.80 "Hg9 mi
5:00 AM48 °FClear.8 mph82%29.81 "Hg9 mi
4:00 AM48 °FClear.9 mph82%29.83 "Hg9 mi
3:00 AM48 °FPassing clouds.8 mph82%29.84 "Hg9 mi
2:00 AM48 °FPassing clouds.7 mph82%29.85 "Hg9 mi
1:00 AM50 °FClear.8 mph82%29.85 "Hg9 mi
12:00 AM52 °FClear.9 mph82%29.87 "Hg9 mi
11:00 PM
Mon, Sep 26
52 °FClear.8 mph88%29.88 "Hg9 mi
10:00 PM52 °FClear.8 mph88%29.89 "Hg9 mi
9:00 PM52 °FClear.7 mph94%29.89 "Hg9 mi
Weather by CustomWeather, © 2016

See weather overviewHow to use our weather pages